STARLINK-11490, 62219

Orbit data source: Space-Track

STARLINK-11490, 62219 is a payload satellite owned by SpaceX/Seattle (US) in LEO that was launched on Thu, 05 Dec 2024 UTC via an FALCON 9 launch vehicle from the Air Force Western Test Range (AFWTR). Payload-class satellites include a variety of spacecraft equipped with specific instruments for various scientific and technological missions. These include communications satellites like Starlink; space stations such as the ISS; scientific satellites like the Hubble; Earth observation satellites from companies like Planet Labs, Umbra, and HawkEye 360; GPS; miniature CubeSats for education and research; and military/defense satellites.

Loading next visibility...
Identifier
62219, 2024-231B
Orbit
LEO
Last TLE update
5 hours ago
Origin
Manufacturer
SpaceX/Seattle
Mission
Operational Commercial Communications
Bus & Motor
STARLINK V2M, Unknown motor
Mass
730 kg wet, ~700 kg dry
Launch date (UTC)
2024-12-05 (7 months ago)
Launch vehicle
FALCON 9
Launch site
Air Force Western Test Range (AFWTR)
Object type
Payload
Rocket body
Debris
Shape & HBR
Box + 2 Pan, 29 m
Radar Cross Section
36.964 m², Large (>1 m²)

Expand to show TLE details & history

TLE from 5 hours ago
0 STARLINK-11490
1 62219U 24231B   25192.21145329  .00115281  00000-0  94281-3 0  9993
2 62219  53.1569 211.7398 0001707 332.8555  27.2374 15.69720153 35493
Epoch: 2025-07-11T05:04Z
TLE epoch observation values (Epoch: 2025-07-11T05:04:29.564Z)
Latitude
0.00004°
Longitude
-153.74999°
Altitude
359.59 km
Speed
7.695 km/s
True Right ascension
14h 06m 57s
True Declination
0° 00' 00"
Sunlit
Object was in daylight at epoch
Visualization orbit readout
Latitude
-3.35276°
Longitude
-157.19002°
Altitude
359.924 km
Speed
7.695 km/s
Apparent Right ascension
12h 15m 08s
Apparent Declination
-23° 44' 26"
Sunlit
Object is in daylight
Visualization observer readout
Local Sidereal Time
21:56:13
Azimuth
288.445° WNW
Elevation
-56.65°
Doppler factor
1
Orbital elements
Apogee altitude
361.109 km
Perigee altitude
358.809 km
Semi-major axis
6,738.096 km
Eccentricity
0.00017
Inclination
53.1569°
RAAN
211.7398°
Arg. of periapsis
332.8555°
True anomaly
Unknown
Mean anomaly
27.2374°
Eccentric anomaly
Unknown
Mean motion
3.92408 °/min
Orbital period
91.74 mins
BSTAR
0.00094281
Loading maneuver chart data...
Loading SW <> Apogee altitude chart data...
Loading historical data...
Loading historical data...
Loading historical data...
Loading historical data...
Loading historical data...
Loading historical data...
Loading historical data...

STARLINK-11490 Visibility forecast

Observer location: undefined°, undefined°

Span
Click to sort rows by Start time (UTC) header in descending order
Start Az.
Max El. time (UTC)
Max El. Az.
Max El.
End time (UTC)
End Az.
4 mins2025-07-11 10:07:28.656Z341.515° N2025-07-11 10:09:28.656Z33.689° NE21.109°2025-07-11 10:11:28.656Z81.361° E
4 mins2025-07-12 04:12:28.656Z249.027° W2025-07-12 04:13:28.656Z301.536° NW42.027°2025-07-12 04:16:28.656Z44.869° NE
|